Tracking 34141 objects as of 18-May-2026
HD Live streaming from Space Station
objects crossing your sky now

STARLINK-5558

Track STARLINK-5558 now!
10-day predictions
STARLINK-5558 is classified as:


NORAD ID: 55631
Int'l Code: 2023-021D
Perigee: 577.4 km
Apogee: 581.0 km
Inclination: 70.0 °
Period: 96.1 minutes
Semi major axis: 6950 km
RCS: Unknown
Launch date: February 17, 2023
Source: United States (US)
Launch site: AIR FORCE WESTERN TEST RANGE (AFWTR)
Your satellite tracking list
Your tracking list is empty




NASA's NSSDC Master Catalog

Two Line Element Set (TLE):
1 55631U 23021D   26138.40823539 -.00000499  00000-0 -34039-4 0  9999
2 55631  70.0000  28.5797 0002640 268.6022  91.4835 14.98329059178742
Source of the keplerian elements: AFSPC